EW7207 Weather Reports


Display with metric or nautical units.
time (UTC)temp
F
wind
direction
speed
MPH
gust
MPH
rain 1hr
in
rain 24hr
in
rain mn
in
humidity
%
barometer
mb
20260505223052 79 227 16.0 22.0 0.00 0.09 0.09 32 1043.1
20260505221149 79 243 14.0 19.0 0.00 0.09 0.09 32 1042.8
20260505220148 79 241 13.0 18.0 0.00 0.09 0.09 32 1043.2
20260505215148 79 264 16.0 26.0 0.00 0.09 0.09 32 1043.2
20260505214150 79 236 9.0 13.0 0.00 0.09 0.09 32 1043.3
20260505213248 79 246 16.0 20.0 0.00 0.09 0.09 32 1043.3
20260505212348 79 226 20.0 28.0 0.00 0.09 0.09 32 1043.2
20260505211350 79 268 11.0 16.0 0.00 0.09 0.09 31 1043.0
20260505210352 79 274 15.0 21.0 0.00 0.09 0.09 32 1042.9
20260505205349 79 246 17.0 24.0 0.00 0.09 0.09 30 1043.2
20260505204349 80 250 17.0 26.0 0.00 0.09 0.09 31 1043.2
20260505203350 79 214 16.0 22.0 0.00 0.09 0.09 30 1043.0
20260505202448 80 226 16.0 25.0 0.00 0.09 0.09 30 1043.2
20260505201450 79 267 16.0 19.0 0.00 0.09 0.09 30 1043.2
20260505200450 79 226 17.0 26.0 0.00 0.09 0.09 28 1043.2
20260505195450 80 234 17.0 25.0 0.00 0.09 0.09 29 1043.3
20260505195348 80 233 20.0 30.0 0.00 0.09 0.09 29 1043.3
20260505193350 80 244 16.0 23.0 0.00 0.09 0.09 28 1043.3
20260505192449 80 258 17.0 24.0 0.00 0.09 0.09 27 1043.3
20260505191549 80 232 16.0 24.0 0.00 0.09 0.09 27 1043.3
20260505190647 80 241 17.0 23.0 0.00 0.09 0.09 28 1043.3
20260505185650 80 230 13.0 17.0 0.00 0.09 0.09 29 1043.6
20260505184649 80 215 16.0 23.0 0.00 0.09 0.09 28 1043.6
20260505183650 80 228 12.0 16.0 0.00 0.09 0.09 30 1043.6
20260505181749 80 246 18.0 24.0 0.00 0.09 0.09 29 1044.0
20260505180748 80 243 16.0 24.0 0.00 0.09 0.09 30 1044.2
20260505175749 79 250 19.0 27.0 0.00 0.09 0.09 33 1044.2
20260505172847 80 246 12.0 16.0 0.00 0.09 0.09 35 1044.2
20260505171850 79 240 13.0 21.0 0.00 0.09 0.09 35 1044.3
20260505165949 78 311 7.0 11.0 0.00 0.09 0.09 38 1044.5
20260505164951 78 262 6.0 12.0 0.00 0.09 0.09 39 1045.0
20260505163950 77 312 7.0 10.0 0.00 0.09 0.09 39 1044.9
20260505162047 77 232 12.0 15.0 0.00 0.09 0.09 40 1045.3
20260505161105 77 215 11.0 15.0 0.00 0.09 0.09 40 1045.0
20260505160152 77 242 14.0 18.0 0.00 0.09 0.09 41 1045.2
20260505153149 75 305 8.0 11.0 0.00 0.09 0.09 43 1045.6
20260505152148 75 301 8.0 14.0 0.00 0.09 0.09 44 1045.6
20260505150249 74 277 3.0 7.0 0.00 0.09 0.09 47 1045.9
20260505140448 69 298 9.0 12.0 0.00 0.09 0.09 53 1046.4
20260505124549 62 216 3.0 5.0 0.00 0.09 0.09 70 1046.5
20260505123549 61 199 2.0 3.0 0.00 0.09 0.09 69 1046.6
20260505122549 61 234 3.0 5.0 0.00 0.09 0.09 72 1046.5
20260505121550 60 217 3.0 4.0 0.00 0.09 0.09 74 1046.3
20260505120550 59 245 4.0 6.0 0.00 0.09 0.09 88 1046.3
20260505115648 58 360 0.0 0.0 0.00 0.09 0.09 93 1046.1
20260505114649 57 283 0.0 0.0 0.00 0.09 0.09 93 1045.8
20260505113650 55 22 0.0 1.0 0.00 0.09 0.09 91 1046.0
20260505112650 55 247 0.0 0.0 0.00 0.09 0.09 93 1045.9
20260505111647 54 45 0.0 0.0 0.00 0.09 0.09 94 1045.9
20260505110747 53 45 0.0 0.0 0.00 0.09 0.09 94 1045.9
20260505101949 52 22 0.0 1.0 0.01 0.09 0.09 92 1045.3
20260505100948 52 45 0.0 0.0 0.05 0.09 0.09 92 1045.3
20260505095951 52 45 0.0 0.0 0.08 0.08 0.08 91 1045.4
20260505094948 52 45 0.0 1.0 0.08 0.08 0.08 91 1045.5
20260505093950 52 67 3.0 4.0 0.08 0.08 0.08 88 1045.2
20260505092950 53 163 2.0 4.0 0.08 0.08 0.08 85 1045.7
20260505091949 54 67 1.0 2.0 0.08 0.08 0.08 83 1045.4
20260505085147 55 29 2.0 3.0 0.00 0.00 0.00 74 1045.2
20260505084150 56 360 1.0 2.0 0.00 0.00 0.00 70 1045.1
20260505083148 56 90 1.0 2.0 0.00 0.00 0.00 69 1045.0
20260505082148 57 45 3.0 4.0 0.00 0.00 0.00 66 1044.8
20260505081149 59 219 0.0 1.0 0.00 0.00 0.00 62 1044.9
20260505075248 59 319 1.0 3.0 0.00 0.00 0.00 61 1045.0
20260505073251 59 202 0.0 0.0 0.00 0.00 0.00 60 1045.0
20260505071349 59 100 0.0 0.0 0.00 0.00 0.00 58 1045.0
20260505070348 59 67 0.0 0.0 0.00 0.00 0.00 57 1045.0
20260505065351 59 180 1.0 2.0 0.00 0.00 0.00 57 1044.9
20260505064351 59 180 2.0 3.0 0.00 0.00 0.00 57 1045.1
20260505063449 59 225 0.0 0.0 0.00 0.00 0.00 56 1044.9
20260505062449 59 225 0.0 0.0 0.00 0.00 0.00 56 1045.0
20260505052650 60 45 0.0 0.0 0.00 0.00 0.00 53 1045.0
20260505051748 60 225 2.0 3.0 0.00 0.00 0.00 53 1045.0
20260505040751 61 199 4.0 9.0 0.00 0.00 0.00 51 1044.8
20260505035829 61 202 1.0 3.0 0.00 0.00 0.00 50 1044.8
20260505033832 62 182 1.0 3.0 0.00 0.00 0.00 48 1044.8
20260505032929 62 203 3.0 7.0 0.00 0.00 0.00 48 1044.9
20260505031029 63 219 5.0 6.0 0.00 0.00 0.00 47 1045.0
20260505025031 63 228 3.0 4.0 0.00 0.00 0.00 46 1045.1
20260505024032 63 216 7.0 10.0 0.00 0.00 0.00 46 1045.2
20260505023031 63 219 3.0 4.0 0.00 0.00 0.00 46 1045.2
20260505021030 63 215 5.0 8.0 0.00 0.00 0.00 45 1045.4
20260505015030 63 180 1.0 2.0 0.00 0.00 0.00 45 1045.3
20260505014030 63 202 2.0 3.0 0.00 0.00 0.00 45 1045.2
20260505013031 63 214 2.0 5.0 0.00 0.00 0.00 44 1045.2
20260505012029 64 211 2.0 3.0 0.00 0.00 0.00 43 1045.1
20260505011033 64 202 1.0 2.0 0.00 0.00 0.00 43 1045.0
20260505010033 64 225 1.0 2.0 0.00 0.00 0.00 43 1044.9
20260505004130 64 180 1.0 2.0 0.00 0.00 0.00 42 1044.7
20260505003131 65 225 1.0 2.0 0.00 0.00 0.00 42 1044.8
20260505002130 65 246 1.0 3.0 0.00 0.00 0.00 41 1044.6
20260505001131 66 209 3.0 4.0 0.00 0.00 0.00 39 1044.5
20260505000129 67 225 6.0 8.0 0.00 0.00 0.00 39 1044.5
20260504235131 67 224 7.0 8.0 0.00 0.00 0.00 38 1044.5
20260504234230 68 235 6.0 7.0 0.00 0.00 0.00 37 1044.5
20260504233329 68 222 8.0 11.0 0.00 0.00 0.00 37 1044.2
20260504225445 69 226 10.0 15.0 0.00 0.00 0.00 36 1043.9
20260504224531 70 226 12.0 15.0 0.00 0.00 0.00 36 1043.9
20260504223530 70 226 11.0 14.0 0.00 0.00 0.00 35 1043.9